Bolton Field (TZR)

 

Airport Diagram
Current Weather/Forecast (MVFR Conditions)
METAR KTZR 071150Z 31010G16KT 7SM OVC013 07/06 A2997
TAF

Airport Information

All Charts
General
Chart Name View
AIRPORT DIAGRAM
TAKEOFF MINIMUMS
ALTERNATE MINIMUMS

Arrivals
Chart Name Download
BREMN FIVE
BREMN FIVE, CONT.1
GAILL THREE (RNAV)
GUNNE FOUR
GUNNE FOUR, CONT.1

Approaches
Chart Name Download
ILS OR LOC RWY 04
RNAV (GPS) RWY 04
RNAV (GPS) RWY 22
NDB RWY 04


Airport Statistics
Departures Arrivals Local
All Collected Stats since June 2016: 33 13 0
2021 Stats: 9 3 0
May Stats: 1 2 0

Inbound Traffic (Arrivals) - 0

No inbound traffic.


Outbound Traffic (Departures) - 0

No outbound traffic.


Local Traffic (Pattern) - 0

No local traffic.